Regional Weather Roundup
Issued by NWS

Home | Current Version | Previous Version | Graphics & Text | Print | Product List | Glossary On
Versions: 1 2 3 4 5 6 7 8 9 10 11 12 13 14 15 16 17 18 19 20 21 22 23 24 25 26 27
000
ASUS45 KBOU 310307
RWRCO

WEATHER ROUNDUP FOR COLORADO
NATIONAL WEATHER SERVICE DENVER/BOULDER CO
900 PM MDT THU OCT 30 2014

NOTE: "FAIR" INDICATES FEW OR NO CLOUDS BELOW 12000 FEET WITH NO
SIGNIFICANT WEATHER AND/OR OBSTRUCTIONS TO VISIBILITY.

COZ001>005-013-030-031-310400-
...NORTHWEST COLORADO...

CITY           SKY/WX    TMP DP  RH WIND       PRES   REMARKS
CRAIG          CLEAR     35  28  75 CALM      30.33R
HAYDEN         CLEAR     41  27  56 E8        30.33S
MEEKER         PTCLDY    44  29  55 E7        30.32S
MOUNT WERNER   NOT AVBL
STEAMBOAT SPGS CLEAR     44  28  51 E5        30.35S
WALDEN         CLEAR     32  27  80 SE9       30.41R WCI  24
$$

COZ006>008-011-310400-
...WEST CENTRAL VALLEYS...

CITY           SKY/WX    TMP DP  RH WIND       PRES   REMARKS
GRAND JUNCTION CLEAR     47  23  38 E6        30.22S
MONTROSE       CLEAR     46  28  49 SE10      30.30S
EAGLE          CLEAR     39  25  56 SE3       30.37R
RIFLE          CLEAR     46  27  47 SE7       30.28R
DELTA          CLEAR     49  26  40 E3        30.26S
NUCLA          CLEAR     48  25  40 E10       30.31R
$$

COZ017>023-064>068-310400-
...SOUTHWEST COLORADO...

CITY           SKY/WX    TMP DP  RH WIND       PRES   REMARKS
DURANGO        CLEAR     44  26  49 N5        30.32S
CORTEZ         CLEAR     41  24  51 E9        30.28R
PAGOSA SPRINGS CLEAR     45  18  34 CALM      30.39S
TELLURIDE      CLEAR     46  18  33 E7        30.46S
WOLF CREEK PAS CLEAR     36  16  44 SW14      30.59S
$$

COZ009-010-012-014-032>034-037-058>063-310400-
...CENTRAL COLORADO...

CITY           SKY/WX    TMP DP  RH WIND       PRES   REMARKS
ASPEN          CLEAR     40  23  50 SW8       30.39S
BUENA VISTA    CLEAR     41  22  46 E6        30.45R
COPPER MTN     PTCLDY    37  14  38 S12       30.58F
BERTHOUD PASS  FAIR      30  28  93 W10       30.60S WCI  21
COTTONWOOD PAS CLEAR     43  19  39 N3        30.50S
GUNNISON       CLEAR     39  18  41 CALM      30.40S
KREMMLING      CLEAR     37  27  65 E3        30.40S
LEADVILLE      PTCLDY    31  15  52 CALM      30.48R
MONARCH PASS   CLEAR     37  14  38 CALM      30.69S
SALIDA         CLEAR     48  22  36 SE7       30.50R
SUNLIGHT       CLEAR     45  19  36 CALM      30.54S
WILKERSON PASS NOT AVBL
$$

COZ069>075-310400-
...SAN LUIS VALLEY/SANGRE DE CRISTO MOUNTAINS...

CITY           SKY/WX    TMP DP  RH WIND       PRES   REMARKS
ALAMOSA        PTCLDY    40  20  44 E7        30.36R
LA VETA PASS   CLEAR     34  21  60 N9        30.53R WCI  26
SAGUACHE       CLEAR     41  18  38 NW9       30.39S
$$

COZ035-036-038>040-310400-
...NORTHERN COLORADO FRONT RANGE...

CITY           SKY/WX    TMP DP  RH WIND       PRES   REMARKS
DENVER INTL AP CLEAR     41  27  57 S10       30.39R
DMNS CITY PARK   N/A     48  27  44 S2        30.39R
AURORA         CLEAR     42  28  57 SE10      30.40S
FRONT RANGE AP CLEAR     43  30  61 S12       30.40S
ERIE MUNI ARPT CLEAR     40  29  65 S3        30.39R
BOULDER MUN AP CLEAR     48  28  46 CALM      30.39R
CENTENNIAL     PTCLDY    47  27  45 S9        30.40R
BROOMFIELD     CLEAR     50  28  43 CALM      30.40R
FORT COLLINS   CLEAR     48  25  40 W5        30.40R
LONGMONT       CLEAR     43  30  59 W3        30.41R
$$

COZ041-046-047-076>085-087-088-310400-
...PIKES PEAK/PALMER DIVIDE AND SOUTHERN FOOTHILLS...

CITY           SKY/WX    TMP DP  RH WIND       PRES   REMARKS
COLO. SPRINGS  CLEAR     48  24  39 CALM      30.43R
A. F. ACADEMY  CLEAR     34  22  61 N7        30.43R WCI  28
ELLICOTT       CLEAR     44  24  45 E12       30.41R
FALCON         CLEAR     41  23  49 NE3       30.45R
FORT CARSON    CLEAR     47  24  41 SW8       30.41R
LIMON          CLEAR     37  24  59 W5        30.40S
MONUMENT HILL  CLEAR     37  25  60 SE8       30.43S
TRINIDAD       CLEAR     45  23  42 CALM      30.40R
$$

COZ042>045-048>051-090-091-310400-
...NORTHEAST COLORADO...

CITY           SKY/WX    TMP DP  RH WIND       PRES   REMARKS
GREELEY ARPT   CLEAR     45  25  45 E6        30.39S
AKRON          CLEAR     46  27  47 E6        30.39R
BURLINGTON     CLEAR     47  25  42 NE9       30.39R
WRAY           CLEAR     44  28  54 CALM      30.39R
STERLING       NOT AVBL
HOLYOKE        CLEAR     41  30  65 CALM      30.39S
FORT MORGAN    CLEAR     43  26  52 NE6       30.39S
$$

COZ086-089-092>099-310400-
...SOUTHEAST COLORADO...

CITY           SKY/WX    TMP DP  RH WIND       PRES   REMARKS
PUEBLO         CLEAR     48  24  39 CALM      30.37R
LA JUNTA       CLEAR     50  26  39 E6        30.36R
LAMAR          CLEAR     43  26  51 S5        30.34R
SPRINGFIELD      N/A     42  25  50 NE3       30.37R
$$



USA.gov is the U.S. government's official web portal to all federal, state and local government web resources and services.